< < Back
Terminal Aerodrome Forecast


Current Version              Previous Versions:   1  2  3  4  5  6  7  8  9  

Terminal Aerodrome Forecast

309
FTUS42 KGSP 221700
TAFCLT
TAF
KCLT 221731Z 2218/2318 34012G18KT P6SM FEW060
     FM230000 34009KT P6SM SKC
     FM230600 33004KT P6SM SKC=

Latest METAR

041
SAUS70 KWBC 231056
MTRCLT
METAR KCLT 231052Z 32005KT 10SM CLR 05/02 A3009 RMK AO2 SLP187 T00500022
$


USA.gov is the U.S. government's official web portal to all federal, state and local government web resources and services.